Location: Township of Marena
(38.1747°N, 99.6798°W)
Time: 12:20:33
(UTC+00:00)

SL-14 R/B - Pass Details

Date: 26 October 2020
Orbit: 518 x 555 km, 82.4° (Epoch: 25 November)

Event Time Altitude Azimuth Distance (km) Brightness Sun altitude
Rises 11:45:53 0° 201° (SSW) 2,675 6.7 -15.0°
Reaches altitude 10° 11:48:05 10° 208° (SSW) 1,795 5.7 -14.5°
Maximum altitude 11:51:52 44° 280° (W) 765 3.6 -13.8°
Drops below altitude 10° 11:55:43 10° 354° (N) 1,828 5.9 -13.0°
Sets 11:57:59 0° 1° (N) 2,731 6.8 -12.6°
